[[{"header":{"parameterUnit":"m.s-1","parameterCategory":2,"la1":30.2991,"la2":30.254,"lo1":-89.0895,"lo2":-89.0444,"dy":0.0017,"dx":0.0017,"nx":28,"ny":28,"refTime":"2024-07-19T21:00:00:Z","depth":"0","parameterNumber":2,"parameterNumberName":"U-component_of_CURRENTS"},"data":[0,0,0,0,0,0,0,0,0,0,0,0,0,0,0,0,0,0,0,0,0,0,0,0,0,0,0,0,0,0,0,0,0,0,0,0,0,0,0,0,0,0,0,0,0,0,0,0,0,0,0,0,0,0,0,0,0,0,0.2085,0.2085,0,0.2046,0.2045,0.2045,0.2009,0.2009,0.2008,0.2008,0.1949,0.1948,0.1947,0,0,0,0,0,0,0,0,0,0,0,0,0,0.2136,0.2135,0.2086,0.2085,0.2085,0.2046,0.2045,0.2045,0.2009,0.2009,0.2008,0.2008,0.1949,0.1948,0.1947,0,0,0,0,0,0,0,0,0,0,0,0,0,0.2106,0.2135,0.2086,0.2063,0.206,0.2046,0.2045,0.2045,0.2009,0.2009,0.2008,0.2008,0.195,0.1948,0.1946,0.1946,0,0,0.1941,0.194,0,0,0,0,0,0,0,0,0.2108,0.2104,0.2066,0.2064,0.2061,0.2032,0.2041,0.2011,0.2009,0.2028,0.2008,0.2007,0.1976,0.1972,0.1965,0.1944,0.1941,0.1941,0.194,0.1939,0.1938,0,0,0,0,0,0,0,0.211,0.2106,0.2069,0.2066,0.2063,0.2056,0.2051,0.2036,0.2005,0.2026,0.2024,0.202,0.1974,0.1967,0.1963,0.194,0.1941,0.1939,0.1938,0.1937,0.1958,0.1959,0,0,0,0,0,0,0.2116,0.2108,0.207,0.2068,0.2084,0.2056,0.205,0.2042,0.2005,0.1999,0.2021,0.2019,0.197,0.1966,0.1961,0.1979,0.1939,0.1937,0.1936,0.1956,0.1958,0.196,0,0,0,0,0,0,0.2117,0.2113,0.2072,0.2088,0.2082,0.2056,0.2046,0.2041,0.2037,0.2002,0.1995,0.2022,0.197,0.1964,0.196,0.1975,0.1936,0.1935,0.1954,0.1957,0.1959,0.2001,0,0,0,0,0,0,0.2119,0.2114,0.2112,0.2088,0.2082,0.2073,0.2047,0.2041,0.2036,0.2033,0.2001,0.1994,0.1969,0.1963,0.1958,0.1972,0.1933,0.1952,0.1955,0.1958,0.1998,0.2005,0.2011,0,0,0,0,0,0.2121,0.2122,0.2112,0.2108,0.2079,0.2074,0.2071,0.2049,0.2037,0.2042,0.2023,0.1995,0.1979,0.1963,0.1956,0.197,0.1951,0.1955,0.1958,0.1995,0.2003,0.2011,0,0,0,0,0,0,0.2141,0.2118,0.2107,0.21,0.2093,0.2069,0.2069,0.2057,0.2046,0.2042,0.2008,0.2001,0.2009,0.199,0.1972,0.199,0.1964,0.1967,0.1994,0.2002,0.2008,0.2031,0.1932,0,0,0,0,0,0.2146,0.2138,0.2122,0.2116,0.2115,0.2095,0.209,0.2078,0.2064,0.2058,0.2036,0.2022,0.202,0.201,0.2005,0.2005,0.2032,0.2016,0.2022,0.2028,0.2046,0.2133,0.2149,0.1972,0.1972,0.1972,0,0,0.2149,0.2137,0.2131,0.212,0.211,0.2108,0.2091,0.2089,0.2088,0.2054,0.2048,0.2044,0.2029,0.2036,0.2037,0.2017,0.2087,0.2032,0.2037,0.2052,0.2139,0.2156,0.2172,0.1975,0.1974,0.1974,0,0,0.215,0.2146,0.2139,0.2138,0.213,0.2124,0.2128,0.2113,0.211,0.2108,0.2094,0.2109,0.2082,0.2088,0.2084,0.2127,0.2126,0.2119,0.2157,0.2242,0.2258,0.2272,0.2303,0.2319,0.2114,0.2114,0.2114,0,0.2156,0.2137,0.2139,0.2136,0.2131,0.2133,0.2128,0.2134,0.2119,0.213,0.2113,0.2132,0.2114,0.2144,0.2156,0.2142,0.2176,0.2122,0.2252,0.2266,0.228,0.2309,0.2327,0.2116,0.2116,0.2116,0.2115,0,0.2146,0.2137,0.2138,0.2129,0.2136,0.2133,0.2143,0.2157,0.2156,0.2162,0.22,0.2196,0.2213,0.2209,0.2187,0.2271,0.2257,0.2257,0.2231,0.2301,0.2326,0.2344,0.212,0.2119,0.2118,0.2117,0,0,0.2127,0.2127,0.2124,0.2119,0.2128,0.2131,0.2155,0.2176,0.2209,0.2217,0.2264,0.2272,0.2294,0.2295,0.2289,0.2349,0.2456,0.2342,0.2345,0.2371,0.2618,0.2435,0.2436,0.2486,0.249,0.2493,0.2586,0,0.2109,0.2097,0.2105,0.2101,0.2096,0.2122,0.2151,0.2184,0.2218,0.2273,0.2307,0.235,0.232,0.2343,0.2404,0.2452,0.251,0.2429,0.2549,0.2551,0.238,0.2454,0.2265,0.2318,0.2604,0.2606,0.2609,0,0.2078,0.2077,0.2066,0.2088,0.2092,0.2104,0.2163,0.2193,0.2286,0.2321,0.2388,0.2422,0.2503,0.2481,0.2611,0.2563,0.2601,0.2632,0.2637,0.2469,0.2403,0.2301,0.234,0.2298,0.2636,0.2634,0.2632,0,0.204,0.2043,0.2033,0.2035,0.2072,0.209,0.2123,0.2206,0.2257,0.237,0.243,0.2523,0.2584,0.2668,0.2698,0.2685,0.2836,0.2826,0.2695,0.2681,0.2544,0.251,0.2555,0.2945,0.2945,0.2945,0.2944,0,0.1998,0.199,0.2018,0.2012,0.2037,0.2076,0.2131,0.219,0.2299,0.2379,0.2461,0.254,0.2645,0.272,0.2752,0.2754,0.2881,0.2719,0.2708,0.2545,0.2512,0.2484,0.2469,0.2948,0.2947,0.2947,0.2946,0,0.1949,0.1958,0.1957,0.1997,0.2014,0.2038,0.2125,0.219,0.2289,0.2404,0.2447,0.2587,0.2674,0.2728,0.2853,0.2797,0.273,0.2801,0.256,0.2517,0.2305,0.2297,0.2221,0.2176,0.2684,0.268,0.2677,0,0.1917,0.1911,0.1944,0.1967,0.1983,0.2029,0.2084,0.2176,0.2253,0.242,0.2485,0.2596,0.2655,0.272,0.2648,0.2638,0.262,0.2443,0.2375,0.2273,0.2262,0.2185,0.2151,0.2218,0.2212,0.2206,0.2202,0,0.1878,0.1893,0.1906,0.1954,0.1996,0.2042,0.2119,0.2168,0.2297,0.2375,0.2491,0.2547,0.2563,0.2448,0.2379,0.235,0.2275,0.2325,0.2328,0.198,0.1801,0.1756,0.2152,0.2153,0.2158,0.2162,0.2164,0.2166,0.1865,0.1872,0.191,0.1944,0.2,0.2058,0.2069,0.2149,0.2224,0.229,0.2404,0.2381,0.2278,0.2139,0.2096,0.1857,0.1937,0.1768,0.1794,0.1747,0.161,0.1846,0.1755,0.1757,0.1759,0.1761,0.1763,0,0.1853,0.1872,0.191,0.1953,0.1992,0.2032,0.21,0.2083,0.2106,0.2133,0.216,0.1994,0.1838,0.1742,0.1487,0.1361,0.1325,0.1321,0.1238,0.1258,0.157,0.1455,0.1161,0.1161,0.1161,0.1162,0.1162,0.1162,0.1855,0.1876,0.1886,0.1928,0.1961,0.1975,0.1983,0.1944,0.192,0.1787,0.1648,0.1606,0.152,0.1304,0.111,0.1065,0.1039,0.0871,0.1005,0.1278,0.1324,0.1369,0.126,0.0931,0.093,0.0602,0.0599,0.0597]},{"header":{"parameterUnit":"m.s-1","parameterCategory":2,"la1":30.2991,"la2":30.254,"lo1":-89.0895,"lo2":-89.0444,"dy":0.0017,"dx":0.0017,"nx":28,"ny":28,"refTime":"2024-07-19T21:00:00:Z","depth":"0","parameterNumber":3,"parameterNumberName":"V-component_of_CURRENTS"},"data":[0,0,0,0,0,0,0,0,0,0,0,0,0,0,0,0,0,0,0,0,0,0,0,0,0,0,0,0,0,0,0,0,0,0,0,0,0,0,0,0,0,0,0,0,0,0,0,0,0,0,0,0,0,0,0,0,0,0,0.0243,0.0243,0,0.0257,0.0257,0.0257,0.0263,0.0263,0.0263,0.0262,0.0242,0.0242,0.0241,0,0,0,0,0,0,0,0,0,0,0,0,0,0.0214,0.0215,0.0242,0.0243,0.0243,0.0257,0.0257,0.0257,0.0263,0.0263,0.0263,0.0262,0.0242,0.0242,0.0241,0,0,0,0,0,0,0,0,0,0,0,0,0,0.0228,0.0215,0.0242,0.0247,0.0247,0.0257,0.0257,0.0257,0.0263,0.0263,0.0262,0.0262,0.0243,0.0242,0.0241,0.0239,0,0,0.0239,0.0239,0,0,0,0,0,0,0,0,0.0227,0.0229,0.0246,0.0247,0.0247,0.0257,0.0239,0.0249,0.0263,0.0257,0.0262,0.0262,0.0244,0.0243,0.0247,0.0238,0.0237,0.0239,0.0239,0.0238,0.0238,0,0,0,0,0,0,0,0.0226,0.0228,0.0248,0.0246,0.0247,0.0246,0.0248,0.0241,0.0251,0.0258,0.0258,0.0259,0.0244,0.0248,0.0247,0.0237,0.0239,0.0238,0.0238,0.0238,0.0232,0.0233,0,0,0,0,0,0,0.0224,0.0227,0.0248,0.0249,0.0236,0.0247,0.0249,0.0255,0.0252,0.0251,0.0259,0.0259,0.0249,0.0247,0.0246,0.0255,0.0238,0.0238,0.0237,0.0232,0.0232,0.0233,0,0,0,0,0,0,0.0223,0.0226,0.0247,0.0238,0.024,0.0247,0.0254,0.0255,0.0258,0.0253,0.0252,0.0261,0.0249,0.0247,0.0244,0.0253,0.0237,0.0237,0.0232,0.0232,0.0233,0.0264,0,0,0,0,0,0,0.0223,0.0226,0.0229,0.0238,0.0241,0.0256,0.0254,0.0255,0.0259,0.0259,0.0254,0.0253,0.0249,0.0245,0.0243,0.0252,0.0236,0.0231,0.0232,0.0232,0.0263,0.0266,0.0268,0,0,0,0,0,0.0222,0.023,0.0229,0.0232,0.0245,0.0257,0.0258,0.0263,0.0259,0.0265,0.0261,0.0253,0.0247,0.0245,0.0243,0.0251,0.0231,0.0232,0.0232,0.0262,0.0265,0.0268,0,0,0,0,0,0,0.0218,0.0232,0.0231,0.0242,0.0249,0.0258,0.0264,0.0263,0.0265,0.0263,0.0255,0.0254,0.0256,0.0247,0.0244,0.0251,0.0238,0.0238,0.0261,0.0264,0.0267,0.0279,0.0236,0,0,0,0,0,0.0218,0.0229,0.0238,0.0246,0.0251,0.0256,0.026,0.0262,0.0264,0.0266,0.0263,0.0258,0.0257,0.0255,0.0253,0.0253,0.0263,0.0257,0.026,0.0262,0.027,0.0308,0.0315,0.0235,0.0235,0.0235,0,0,0.0218,0.0227,0.0232,0.0246,0.0252,0.0265,0.0258,0.0267,0.0277,0.0262,0.0273,0.0267,0.026,0.0266,0.0265,0.0259,0.0286,0.0263,0.0265,0.0272,0.0309,0.0317,0.0324,0.0235,0.0235,0.0235,0,0,0.0227,0.0232,0.0247,0.0255,0.0265,0.027,0.0272,0.0281,0.0285,0.0292,0.0286,0.0287,0.0282,0.0285,0.0284,0.0298,0.03,0.0292,0.0315,0.0351,0.0359,0.0365,0.0374,0.0381,0.0293,0.0293,0.0293,0,0.0225,0.0246,0.0251,0.0267,0.0277,0.0274,0.029,0.0295,0.0301,0.0306,0.0299,0.0307,0.0295,0.0311,0.0315,0.0305,0.0319,0.0305,0.0357,0.0364,0.037,0.0377,0.0385,0.0294,0.0294,0.0294,0.0294,0,0.0248,0.0263,0.0272,0.0294,0.0304,0.0317,0.0325,0.0331,0.0331,0.0336,0.035,0.0343,0.0352,0.0344,0.0332,0.0367,0.0359,0.0358,0.0353,0.038,0.0385,0.0393,0.0297,0.0296,0.0296,0.0295,0,0,0.0249,0.0283,0.0286,0.0302,0.0319,0.0332,0.0346,0.0364,0.038,0.0381,0.0413,0.04,0.0401,0.04,0.0389,0.0411,0.0454,0.0404,0.0405,0.0419,0.0523,0.0494,0.0499,0.0471,0.0473,0.0474,0.0504,0,0.0266,0.0303,0.0314,0.0346,0.0366,0.037,0.0389,0.04,0.041,0.0439,0.0436,0.0461,0.0422,0.0436,0.045,0.0468,0.0478,0.0445,0.0489,0.0489,0.0466,0.0508,0.0513,0.0539,0.0511,0.0512,0.0513,0,0.0288,0.0311,0.0346,0.0381,0.039,0.0407,0.0439,0.0456,0.0484,0.0497,0.0515,0.0522,0.0552,0.0521,0.0556,0.0542,0.0531,0.0532,0.0533,0.0504,0.0475,0.0509,0.0553,0.0545,0.0525,0.0524,0.0523,0,0.0296,0.0334,0.0364,0.0376,0.0413,0.0428,0.0446,0.0471,0.05,0.0545,0.0588,0.0602,0.0649,0.0641,0.0627,0.0607,0.0668,0.0643,0.0595,0.0592,0.0603,0.0597,0.0653,0.0661,0.0661,0.0661,0.0661,0,0.0313,0.0336,0.0371,0.039,0.043,0.0446,0.0491,0.051,0.0559,0.0627,0.0626,0.0699,0.069,0.0716,0.0671,0.0664,0.0703,0.0612,0.061,0.061,0.0605,0.0602,0.0587,0.0662,0.0662,0.0662,0.0662,0,0.0318,0.0339,0.038,0.0422,0.0438,0.0468,0.0526,0.0562,0.0607,0.0706,0.0735,0.0801,0.0849,0.0805,0.0813,0.0742,0.0715,0.0693,0.0676,0.067,0.0604,0.0589,0.0623,0.0654,0.0656,0.0655,0.0655,0,0.0326,0.0348,0.0405,0.0438,0.0459,0.0505,0.0542,0.0582,0.0639,0.0781,0.0847,0.092,0.0994,0.0968,0.0861,0.0774,0.074,0.0693,0.0647,0.0615,0.0599,0.0579,0.0603,0.0668,0.0668,0.0667,0.0667,0,0.0344,0.0364,0.0398,0.0466,0.0511,0.0567,0.0632,0.0687,0.0774,0.0885,0.1046,0.1119,0.11,0.1044,0.0894,0.0816,0.0701,0.0686,0.0682,0.0639,0.0598,0.0621,0.061,0.0666,0.0666,0.0666,0.0666,0.0666,0.0359,0.0388,0.0439,0.0501,0.0557,0.0638,0.0704,0.0803,0.093,0.1119,0.1175,0.1303,0.1187,0.1004,0.0902,0.0704,0.0711,0.0637,0.0628,0.0616,0.0633,0.0598,0.063,0.063,0.063,0.063,0.063,0,0.038,0.0417,0.0477,0.0555,0.0619,0.0646,0.0772,0.0866,0.105,0.1208,0.1354,0.1354,0.1218,0.1041,0.0772,0.0665,0.0643,0.0614,0.0609,0.0643,0.0644,0.0631,0.0631,0.0631,0.0631,0.0631,0.0631,0.0631,0.0395,0.0446,0.0477,0.0588,0.065,0.0756,0.0839,0.1009,0.1145,0.1349,0.1418,0.1453,0.1335,0.0915,0.0697,0.0649,0.064,0.0582,0.0609,0.061,0.0612,0.0614,0.0601,0.0595,0.0594,0.0631,0.0632,0.0632]}],[{"header":{"parameterUnit":"m.s-1","parameterCategory":2,"la1":30.2991,"la2":30.254,"lo1":-89.0895,"lo2":-89.0444,"dy":0.0017,"dx":0.0017,"nx":28,"ny":28,"refTime":"2024-07-19T21:00:00:Z","depth":"2","parameterNumber":2,"parameterNumberName":"U-component_of_CURRENTS"},"data":[0,0,0,0,0,0,0,0,0,0,0,0,0,0,0,0,0,0,0,0,0,0,0,0,0,0,0,0,0,0,0,0,0,0,0,0,0,0,0,0,0,0,0,0,0,0,0,0,0,0,0,0,0,0,0,0,0,0,0.1609,0.1609,0,0.1585,0.1585,0.1584,0.1567,0.1567,0.1568,0.1568,0.1567,0.1567,0.1567,0,0,0,0,0,0,0,0,0,0,0,0,0,0.1613,0.1612,0.1609,0.1609,0.1609,0.1586,0.1585,0.1584,0.1567,0.1567,0.1568,0.1568,0.1567,0.1567,0.1567,0,0,0,0,0,0,0,0,0,0,0,0,0,0.1598,0.1612,0.1609,0.1601,0.16,0.1586,0.1585,0.1584,0.1567,0.1567,0.1568,0.1568,0.1568,0.1567,0.1567,0.1557,0,0,0.1566,0.1565,0,0,0,0,0,0,0,0,0.1599,0.1597,0.1602,0.1601,0.1601,0.1584,0.1586,0.1577,0.1567,0.1575,0.1568,0.1568,0.1578,0.1576,0.1564,0.1557,0.1557,0.1566,0.1565,0.1565,0.1565,0,0,0,0,0,0,0,0.16,0.1598,0.1595,0.1602,0.1601,0.159,0.1588,0.1584,0.1571,0.1574,0.1574,0.1578,0.1577,0.1565,0.1564,0.1557,0.1566,0.1565,0.1565,0.1565,0.159,0.1591,0,0,0,0,0,0,0.1613,0.1599,0.1596,0.1595,0.1606,0.159,0.1588,0.1585,0.1571,0.157,0.1578,0.1578,0.1565,0.1565,0.1564,0.1606,0.1565,0.1565,0.1565,0.1589,0.1591,0.1592,0,0,0,0,0,0,0.1613,0.1612,0.1597,0.16,0.1598,0.159,0.1587,0.1584,0.1591,0.1574,0.1573,0.1591,0.1565,0.1565,0.1583,0.1604,0.1565,0.1564,0.1588,0.159,0.1591,0.1655,0,0,0,0,0,0,0.1613,0.1612,0.1619,0.1601,0.1599,0.1606,0.1587,0.1584,0.1594,0.1594,0.1584,0.1583,0.1566,0.1584,0.1583,0.1603,0.1564,0.1587,0.1589,0.1591,0.1652,0.1659,0.1665,0,0,0,0,0,0.1613,0.1616,0.1619,0.1619,0.1607,0.1608,0.1605,0.1598,0.1595,0.1603,0.1601,0.1585,0.1594,0.1585,0.1583,0.1604,0.1586,0.1589,0.1591,0.1649,0.1658,0.1664,0,0,0,0,0,0,0.1618,0.1615,0.1618,0.1619,0.1626,0.1607,0.1607,0.1611,0.1612,0.1614,0.1598,0.1597,0.162,0.1604,0.1594,0.1615,0.1587,0.1588,0.1632,0.1639,0.1645,0.1663,0.1564,0,0,0,0,0,0.1625,0.1627,0.1628,0.1632,0.1632,0.1626,0.1627,0.1629,0.1627,0.1627,0.1625,0.162,0.1622,0.1627,0.1622,0.1636,0.1649,0.1647,0.1654,0.1659,0.1672,0.1733,0.1747,0.1598,0.1598,0.1598,0,0,0.1628,0.1628,0.163,0.1635,0.1628,0.1631,0.1626,0.1634,0.1641,0.1628,0.1638,0.1644,0.1632,0.1647,0.1655,0.164,0.1704,0.1662,0.1666,0.1677,0.1737,0.1752,0.1765,0.16,0.1599,0.1599,0,0,0.163,0.1634,0.1636,0.1641,0.165,0.1647,0.1659,0.1659,0.1663,0.1682,0.1674,0.1708,0.1695,0.1705,0.1703,0.1743,0.1736,0.1731,0.1778,0.1837,0.185,0.1862,0.1882,0.1895,0.1734,0.1734,0.1734,0,0.1636,0.1634,0.1639,0.1641,0.1643,0.1658,0.1661,0.1667,0.168,0.1693,0.1694,0.1721,0.1726,0.1752,0.1773,0.1761,0.1777,0.1751,0.1848,0.186,0.1871,0.1888,0.1902,0.1737,0.1737,0.1736,0.1736,0,0.1634,0.1638,0.1636,0.1642,0.1652,0.1657,0.167,0.1693,0.1708,0.172,0.1762,0.178,0.1805,0.181,0.1807,0.188,0.1859,0.1851,0.1833,0.189,0.1904,0.1917,0.1742,0.1741,0.174,0.1739,0,0,0.1623,0.1633,0.1634,0.1638,0.1651,0.1659,0.1681,0.1706,0.1732,0.1764,0.1811,0.1839,0.1873,0.1876,0.1886,0.1942,0.2043,0.1939,0.194,0.1966,0.2153,0.1998,0.1997,0.2057,0.206,0.2063,0.2125,0,0.1615,0.1619,0.1629,0.1639,0.1636,0.1663,0.168,0.1714,0.1749,0.1804,0.1848,0.1894,0.1886,0.1925,0.1982,0.2044,0.2084,0.2025,0.2087,0.2088,0.1951,0.201,0.1824,0.1852,0.2138,0.214,0.2142,0,0.16,0.1605,0.1609,0.1632,0.1635,0.1653,0.1698,0.1722,0.1797,0.1835,0.1902,0.1938,0.204,0.2028,0.2148,0.2113,0.214,0.2171,0.2173,0.2019,0.1959,0.1844,0.1866,0.2164,0.2162,0.2161,0.2159,0,0.1574,0.159,0.1594,0.1598,0.1628,0.1649,0.1677,0.1734,0.177,0.1877,0.1941,0.2025,0.2107,0.2168,0.2226,0.2211,0.2345,0.2326,0.2193,0.2181,0.2028,0.1997,0.2397,0.2397,0.2397,0.2397,0.2397,0,0.1545,0.1554,0.1587,0.1587,0.1609,0.164,0.1683,0.173,0.1818,0.1886,0.1967,0.2035,0.2157,0.2231,0.2262,0.2264,0.237,0.2212,0.2197,0.2039,0.2009,0.2282,0.2268,0.2399,0.2399,0.2398,0.2398,0,0.1513,0.1531,0.1543,0.158,0.1592,0.1617,0.1686,0.1731,0.1817,0.1924,0.1973,0.2091,0.2175,0.2236,0.2344,0.2298,0.2321,0.2279,0.2059,0.2014,0.2107,0.2096,0.2157,0.2153,0.2149,0.2145,0.2142,0,0.1492,0.1491,0.1533,0.155,0.157,0.1611,0.1645,0.1726,0.1773,0.1938,0.1986,0.21,0.2137,0.2196,0.215,0.2137,0.2224,0.1935,0.186,0.2109,0.2089,0.2084,0.2078,0.1691,0.1685,0.168,0.1675,0,0.1456,0.1481,0.1496,0.153,0.1569,0.1627,0.1677,0.1688,0.1804,0.1873,0.1955,0.1999,0.2031,0.1911,0.187,0.1836,0.1923,0.1823,0.2191,0.1752,0.1667,0.1647,0.1658,0.163,0.1634,0.1638,0.164,0.1642,0.1438,0.1448,0.148,0.1506,0.1563,0.1628,0.1618,0.1671,0.1711,0.1743,0.1821,0.1798,0.1787,0.1599,0.1534,0.1473,0.1604,0.1527,0.1546,0.1569,0.1476,0.1385,0.1277,0.128,0.1282,0.1284,0.1285,0,0.1416,0.1437,0.1455,0.1491,0.1529,0.1602,0.1627,0.158,0.1552,0.1589,0.158,0.1392,0.1275,0.1284,0.1107,0.1061,0.1087,0.1017,0.1054,0.1097,0.1137,0.1025,0.0705,0.0704,0.0703,0.0701,0,0,0.1409,0.141,0.141,0.1444,0.1478,0.1513,0.1505,0.1424,0.1387,0.1274,0.1207,0.1221,0.1249,0.0982,0.0911,0.0794,0.0956,0.0751,0.1211,0.1301,0.134,0.1415,0.1288,0,0,0,0,0]},{"header":{"parameterUnit":"m.s-1","parameterCategory":2,"la1":30.2991,"la2":30.254,"lo1":-89.0895,"lo2":-89.0444,"dy":0.0017,"dx":0.0017,"nx":28,"ny":28,"refTime":"2024-07-19T21:00:00:Z","depth":"2","parameterNumber":3,"parameterNumberName":"V-component_of_CURRENTS"},"data":[0,0,0,0,0,0,0,0,0,0,0,0,0,0,0,0,0,0,0,0,0,0,0,0,0,0,0,0,0,0,0,0,0,0,0,0,0,0,0,0,0,0,0,0,0,0,0,0,0,0,0,0,0,0,0,0,0,0,0.0061,0.0062,0,0.0074,0.0074,0.0074,0.0081,0.0081,0.0081,0.0081,0.0074,0.0074,0.0074,0,0,0,0,0,0,0,0,0,0,0,0,0,0.0031,0.0032,0.0061,0.0062,0.0062,0.0074,0.0074,0.0074,0.0081,0.0081,0.0081,0.0081,0.0074,0.0074,0.0074,0,0,0,0,0,0,0,0,0,0,0,0,0,0.0044,0.0032,0.0061,0.0067,0.0067,0.0074,0.0074,0.0074,0.0081,0.0081,0.0081,0.0081,0.0074,0.0074,0.0073,0.007,0,0,0.0072,0.0072,0,0,0,0,0,0,0,0,0.0043,0.0045,0.0066,0.0066,0.0067,0.0076,0.0061,0.0072,0.0081,0.0075,0.0081,0.0081,0.0073,0.0073,0.0075,0.007,0.0069,0.0072,0.0072,0.0072,0.0072,0,0,0,0,0,0,0,0.0042,0.0044,0.0066,0.0066,0.0067,0.0065,0.0067,0.0063,0.0073,0.0076,0.0076,0.0078,0.0073,0.0075,0.0075,0.0069,0.0072,0.0072,0.0072,0.0072,0.0066,0.0066,0,0,0,0,0,0,0.0042,0.0043,0.0065,0.0066,0.0056,0.0065,0.0067,0.0073,0.0073,0.0074,0.0078,0.0079,0.0076,0.0075,0.0074,0.0087,0.0072,0.0072,0.0072,0.0066,0.0066,0.0066,0,0,0,0,0,0,0.0042,0.0044,0.0065,0.0055,0.0058,0.0066,0.0072,0.0073,0.0078,0.0076,0.0076,0.0082,0.0076,0.0075,0.0077,0.0086,0.0072,0.0071,0.0066,0.0066,0.0066,0.0101,0,0,0,0,0,0,0.0041,0.0044,0.0048,0.0055,0.0058,0.0074,0.0072,0.0073,0.0079,0.008,0.0079,0.0078,0.0076,0.0078,0.0077,0.0085,0.0071,0.0066,0.0066,0.0066,0.01,0.0102,0.0104,0,0,0,0,0,0.004,0.0047,0.0048,0.0051,0.0064,0.0075,0.0076,0.0081,0.008,0.0085,0.0084,0.0079,0.0078,0.0078,0.0077,0.0085,0.0066,0.0066,0.0066,0.0099,0.0102,0.0104,0,0,0,0,0,0,0.0035,0.0049,0.005,0.0061,0.0069,0.0076,0.0081,0.0083,0.0086,0.0086,0.0082,0.0081,0.0086,0.0078,0.0078,0.0082,0.007,0.007,0.0095,0.0097,0.01,0.0111,0.0071,0,0,0,0,0,0.0036,0.0047,0.0056,0.0065,0.0069,0.0075,0.0079,0.0083,0.0087,0.0089,0.0088,0.0085,0.0085,0.0086,0.0082,0.0086,0.009,0.0089,0.0091,0.0093,0.01,0.0121,0.0127,0.0067,0.0067,0.0067,0,0,0.0037,0.0045,0.0052,0.0065,0.007,0.0083,0.0078,0.0087,0.0098,0.0087,0.0099,0.0093,0.0087,0.0093,0.0094,0.0089,0.011,0.0093,0.0095,0.0101,0.0122,0.0128,0.0134,0.0067,0.0067,0.0067,0,0,0.0047,0.0051,0.0065,0.0074,0.0085,0.009,0.0093,0.0102,0.0105,0.0115,0.0109,0.0112,0.011,0.0112,0.0111,0.0122,0.0121,0.0115,0.0139,0.016,0.0165,0.017,0.0178,0.0183,0.0118,0.0118,0.0118,0,0.0047,0.0067,0.007,0.0086,0.0096,0.0094,0.0112,0.0114,0.0123,0.0128,0.0123,0.0128,0.0122,0.0134,0.0138,0.0129,0.0137,0.0132,0.0165,0.017,0.0174,0.0181,0.0187,0.012,0.0119,0.0119,0.0119,0,0.0071,0.0086,0.0094,0.0116,0.0125,0.0139,0.0145,0.0152,0.0153,0.0156,0.0166,0.0162,0.0169,0.0163,0.0156,0.018,0.0173,0.0166,0.0162,0.0183,0.0188,0.0193,0.0122,0.0121,0.0121,0.012,0,0,0.0076,0.0106,0.011,0.0127,0.0143,0.0156,0.0169,0.0183,0.0198,0.0198,0.0223,0.0215,0.0213,0.0212,0.0203,0.0217,0.0251,0.0208,0.0208,0.0223,0.0292,0.0269,0.0273,0.0255,0.0256,0.0257,0.0281,0,0.0096,0.0133,0.0142,0.0176,0.0195,0.0198,0.0213,0.0223,0.0229,0.0251,0.0245,0.0264,0.0231,0.0246,0.0252,0.0265,0.0267,0.0244,0.0263,0.0263,0.0248,0.0279,0.0275,0.0295,0.0286,0.0287,0.0288,0,0.0121,0.0143,0.0179,0.0212,0.0221,0.0239,0.0266,0.0282,0.0299,0.0307,0.0317,0.0317,0.0342,0.0312,0.0333,0.0324,0.0307,0.0303,0.0304,0.0276,0.0251,0.0273,0.0305,0.0297,0.0296,0.0295,0.0295,0,0.0132,0.0171,0.0202,0.0214,0.0246,0.0263,0.0281,0.0298,0.0322,0.0353,0.0389,0.039,0.0433,0.0409,0.0396,0.0375,0.0417,0.0389,0.0341,0.0339,0.0336,0.0331,0.0388,0.0388,0.0388,0.0388,0.0388,0,0.0152,0.0178,0.0211,0.023,0.027,0.0284,0.0326,0.0341,0.0379,0.044,0.0427,0.0487,0.0465,0.0482,0.0431,0.0415,0.0446,0.0356,0.0351,0.0345,0.0341,0.034,0.0334,0.0389,0.0388,0.0388,0.0388,0,0.0159,0.0181,0.0223,0.0263,0.0278,0.0309,0.0363,0.0396,0.0432,0.052,0.0544,0.0589,0.062,0.0568,0.0556,0.0488,0.0452,0.0424,0.0411,0.0403,0.0345,0.034,0.0383,0.0383,0.0382,0.0382,0.0382,0,0.0167,0.0189,0.0246,0.0279,0.03,0.0346,0.038,0.0417,0.0473,0.0594,0.0655,0.0705,0.0754,0.0707,0.0599,0.0501,0.0471,0.0416,0.0366,0.0357,0.0348,0.0344,0.034,0.0374,0.0373,0.0373,0.0373,0,0.0183,0.0204,0.0239,0.0305,0.0351,0.0405,0.0472,0.0529,0.0611,0.0704,0.084,0.0886,0.0843,0.076,0.0607,0.0528,0.0429,0.0406,0.0432,0.0367,0.0348,0.0339,0.0335,0.0371,0.0371,0.0371,0.0371,0.0371,0.0195,0.0224,0.0276,0.0338,0.0395,0.0479,0.0548,0.0644,0.0762,0.0916,0.0947,0.1008,0.0895,0.0701,0.057,0.0418,0.0429,0.0355,0.0356,0.0357,0.0344,0.0324,0.034,0.034,0.034,0.034,0.034,0,0.0217,0.0253,0.0309,0.0391,0.0459,0.0486,0.0619,0.071,0.0884,0.0976,0.1072,0.0953,0.0847,0.07,0.048,0.0352,0.0336,0.0298,0.0305,0.0309,0.0312,0.0295,0.0278,0.0278,0.0277,0.0277,0,0,0.0232,0.0283,0.0313,0.0429,0.0492,0.0603,0.0693,0.0848,0.0947,0.1052,0.1063,0.1048,0.0886,0.0702,0.0534,0.0409,0.0385,0.0377,0.0441,0.0474,0.0478,0.036,0.0341,0,0,0,0,0]}],[{"header":{"parameterUnit":"m.s-1","parameterCategory":2,"la1":30.2991,"la2":30.254,"lo1":-89.0895,"lo2":-89.0444,"dy":0.0017,"dx":0.0017,"nx":28,"ny":28,"refTime":"2024-07-19T21:00:00:Z","depth":"4","parameterNumber":2,"parameterNumberName":"U-component_of_CURRENTS"},"data":[0,0,0,0,0,0,0,0,0,0,0,0,0,0,0,0,0,0,0,0,0,0,0,0,0,0,0,0,0,0,0,0,0,0,0,0,0,0,0,0,0,0,0,0,0,0,0,0,0,0,0,0,0,0,0,0,0,0,0.0678,0.0678,0,0.0689,0.0689,0.0689,0.0721,0.0722,0.0723,0.0723,0.0769,0.0769,0.077,0,0,0,0,0,0,0,0,0,0,0,0,0,0.0686,0.0686,0.0678,0.0678,0.0678,0.0689,0.0689,0.0689,0.0721,0.0722,0.0723,0.0724,0.0768,0.0769,0.077,0,0,0,0,0,0,0,0,0,0,0,0,0,0.0689,0.0686,0.0678,0.0695,0.0696,0.0689,0.0689,0.0689,0.0721,0.0722,0.0723,0.0724,0.0768,0.0769,0.077,0.0757,0,0,0.0773,0.0773,0,0,0,0,0,0,0,0,0.0689,0.0689,0.0692,0.0694,0.0695,0.0704,0.0709,0.0713,0.0721,0.0713,0.0723,0.0724,0.0749,0.0752,0.0752,0.0759,0.0761,0.0773,0.0774,0.0774,0.0774,0,0,0,0,0,0,0,0.0689,0.0689,0.0683,0.0692,0.0694,0.0702,0.0704,0.071,0.0727,0.0713,0.0716,0.0715,0.075,0.0751,0.0754,0.0762,0.0773,0.0774,0.0774,0.0775,0.0836,0.0837,0,0,0,0,0,0,0.0684,0.0688,0.0683,0.0683,0.0694,0.0701,0.0703,0.0701,0.0726,0.073,0.0714,0.0717,0.0749,0.0752,0.0755,0.0815,0.0774,0.0775,0.0775,0.0835,0.0837,0.0838,0,0,0,0,0,0,0.0685,0.0684,0.0682,0.0686,0.0686,0.07,0.0698,0.0701,0.0728,0.0726,0.0731,0.0742,0.075,0.0754,0.0786,0.0815,0.0775,0.0776,0.0834,0.0836,0.0837,0.0888,0,0,0,0,0,0,0.0685,0.0684,0.069,0.0685,0.0686,0.0693,0.0697,0.07,0.0725,0.0729,0.0751,0.0754,0.0751,0.0785,0.0787,0.0815,0.0777,0.0833,0.0835,0.0837,0.0885,0.0891,0.0897,0,0,0,0,0,0.0685,0.0687,0.069,0.069,0.0691,0.0694,0.0695,0.0709,0.0725,0.0738,0.0759,0.0755,0.0799,0.0786,0.0788,0.0818,0.0832,0.0834,0.0836,0.0883,0.089,0.0897,0,0,0,0,0,0,0.0696,0.069,0.0694,0.0695,0.0702,0.0699,0.0714,0.0723,0.0749,0.0763,0.0767,0.0772,0.0807,0.0806,0.0791,0.0841,0.0816,0.0819,0.085,0.0857,0.0863,0.0848,0.0778,0,0,0,0,0,0.0699,0.0703,0.0698,0.0705,0.0709,0.0718,0.0726,0.0734,0.0749,0.0763,0.0777,0.0796,0.0813,0.0831,0.0838,0.0868,0.087,0.0889,0.0894,0.0899,0.0889,0.0951,0.0962,0.0846,0.0846,0.0846,0,0,0.0702,0.0704,0.0705,0.0708,0.0718,0.0724,0.0727,0.0746,0.0761,0.0762,0.0802,0.0814,0.0824,0.0855,0.0872,0.0863,0.0929,0.0902,0.0907,0.0893,0.0955,0.0966,0.0976,0.0847,0.0847,0.0847,0,0,0.0711,0.0719,0.0724,0.0731,0.0746,0.0747,0.0759,0.077,0.0791,0.0819,0.0829,0.0858,0.0885,0.0896,0.0906,0.0947,0.0953,0.0961,0.0986,0.1048,0.1058,0.1067,0.1064,0.1073,0.0971,0.0971,0.0971,0,0.0718,0.0719,0.0728,0.0738,0.0745,0.0761,0.0769,0.0788,0.0812,0.0823,0.0839,0.0885,0.0899,0.0934,0.0955,0.096,0.0981,0.0961,0.1057,0.1066,0.1074,0.1069,0.1078,0.0974,0.0973,0.0973,0.0973,0,0.0724,0.0732,0.0741,0.0755,0.0767,0.0778,0.0796,0.0822,0.085,0.0856,0.0901,0.0928,0.0954,0.0973,0.098,0.1046,0.1035,0.1054,0.104,0.1089,0.108,0.1088,0.0978,0.0977,0.0976,0.0975,0,0,0.0715,0.0737,0.0742,0.0749,0.0776,0.0781,0.0818,0.0834,0.0854,0.0894,0.0923,0.0969,0.0987,0.0999,0.1024,0.1081,0.1158,0.1104,0.1106,0.11,0.1265,0.1152,0.115,0.1217,0.1219,0.1221,0.1227,0,0.0717,0.0729,0.0744,0.0761,0.0764,0.0793,0.0814,0.0838,0.0872,0.0905,0.0946,0.0985,0.0999,0.1035,0.1091,0.1138,0.1186,0.1151,0.1217,0.1217,0.1113,0.1158,0.1228,0.1233,0.1235,0.1236,0.1237,0,0.0715,0.0719,0.0734,0.0748,0.0754,0.0774,0.0811,0.0833,0.0877,0.0907,0.0957,0.0993,0.1061,0.1089,0.1184,0.1172,0.1222,0.1257,0.1259,0.114,0.112,0.1179,0.1251,0.125,0.1249,0.1248,0.1247,0,0.0692,0.0712,0.0724,0.0732,0.0751,0.0775,0.0793,0.0833,0.0852,0.0927,0.0959,0.1026,0.1088,0.1161,0.1234,0.1232,0.1337,0.1338,0.127,0.126,0.1336,0.1326,0.1422,0.1422,0.1422,0.1422,0.1422,0,0.0676,0.0682,0.0719,0.072,0.0731,0.076,0.0788,0.0816,0.0863,0.0878,0.0967,0.1006,0.1128,0.1198,0.1244,0.1265,0.1348,0.1264,0.1265,0.1352,0.1345,0.134,0.133,0.1422,0.1422,0.1422,0.1422,0,0.0646,0.067,0.0675,0.0704,0.0721,0.0732,0.0779,0.078,0.085,0.0889,0.0923,0.1018,0.1097,0.1183,0.1297,0.1271,0.1309,0.1308,0.1359,0.1364,0.1175,0.1168,0.1194,0.119,0.1187,0.1184,0.1182,0,0.0626,0.0632,0.0665,0.0659,0.0678,0.0707,0.0708,0.0768,0.0786,0.0877,0.0886,0.0995,0.1054,0.1106,0.1196,0.1245,0.1257,0.1247,0.123,0.1158,0.1158,0.1155,0.1153,0.1177,0.1176,0.1175,0.1175,0,0.0581,0.0608,0.0608,0.0608,0.0616,0.06,0.0631,0.0649,0.0714,0.0803,0.0849,0.0896,0.0973,0.1041,0.1107,0.1142,0.1228,0.1215,0.1221,0.1205,0.1139,0.1141,0.1142,0.1164,0.1165,0.1166,0.1167,0,0.055,0.0542,0.0554,0.0543,0.053,0.0479,0.0512,0.0546,0.0581,0.0721,0.0733,0.0844,0.0955,0.0987,0.1035,0.1066,0.1047,0.1017,0.1033,0.1046,0.0998,0.0892,0.084,0,0,0,0,0,0.0518,0.0498,0.0478,0.0439,0.041,0.0408,0.0439,0.048,0.0598,0.0608,0.0674,0.0743,0.0807,0.0864,0.0869,0.0938,0.1031,0.0934,0.0999,0.1104,0.1117,0.1076,0,0,0,0,0,0,0.0492,0.0481,0.0462,0.0347,0.0305,0.0258,0.0276,0.0341,0.038,0.0522,0.058,0.0681,0.0774,0.0807,0.0852,0.0868,0.0887,0.1015,0.1013,0.1097,0.1109,0.1119,0.108,0,0,0,0,0]},{"header":{"parameterUnit":"m.s-1","parameterCategory":2,"la1":30.2991,"la2":30.254,"lo1":-89.0895,"lo2":-89.0444,"dy":0.0017,"dx":0.0017,"nx":28,"ny":28,"refTime":"2024-07-19T21:00:00:Z","depth":"4","parameterNumber":3,"parameterNumberName":"V-component_of_CURRENTS"},"data":[0,0,0,0,0,0,0,0,0,0,0,0,0,0,0,0,0,0,0,0,0,0,0,0,0,0,0,0,0,0,0,0,0,0,0,0,0,0,0,0,0,0,0,0,0,0,0,0,0,0,0,0,0,0,0,0,0,0,0.0012,0.0012,0,0.0016,0.0016,0.0016,0.0015,0.0015,0.0015,0.0015,0.0007,0.0007,0.0007,0,0,0,0,0,0,0,0,0,0,0,0,0,-0.0,-0.0,0.0012,0.0012,0.0012,0.0016,0.0016,0.0016,0.0015,0.0015,0.0015,0.0015,0.0007,0.0007,0.0007,0,0,0,0,0,0,0,0,0,0,0,0,0,0.0004,-0.0,0.0012,0.0012,0.0012,0.0016,0.0016,0.0016,0.0015,0.0015,0.0015,0.0015,0.0007,0.0007,0.0007,0.0008,0,0,0.0006,0.0006,0,0,0,0,0,0,0,0,0.0004,0.0005,0.0012,0.0012,0.0012,0.0015,0.0009,0.0013,0.0015,0.0014,0.0015,0.0015,0.0009,0.0009,0.001,0.0007,0.0007,0.0006,0.0006,0.0006,0.0006,0,0,0,0,0,0,0,0.0004,0.0005,0.0013,0.0012,0.0012,0.0011,0.0012,0.001,0.0012,0.0014,0.0014,0.0015,0.0009,0.001,0.0009,0.0007,0.0006,0.0006,0.0006,0.0006,0.0005,0.0005,0,0,0,0,0,0,0.0004,0.0004,0.0013,0.0014,0.0008,0.0011,0.0012,0.0014,0.0012,0.0012,0.0015,0.0015,0.001,0.001,0.0009,0.0017,0.0006,0.0006,0.0006,0.0005,0.0005,0.0005,0,0,0,0,0,0,0.0004,0.0005,0.0013,0.0009,0.001,0.0012,0.0014,0.0014,0.0014,0.0013,0.0012,0.0014,0.001,0.0009,0.0008,0.0016,0.0006,0.0006,0.0005,0.0005,0.0005,0.0028,0,0,0,0,0,0,0.0003,0.0005,0.0007,0.0009,0.001,0.0018,0.0014,0.0015,0.0015,0.0015,0.0012,0.0011,0.001,0.0008,0.0008,0.0016,0.0005,0.0005,0.0005,0.0005,0.0027,0.0028,0.003,0,0,0,0,0,0.0003,0.0009,0.0007,0.0008,0.0013,0.0018,0.0018,0.0019,0.0015,0.0018,0.0014,0.0011,0.0009,0.0008,0.0008,0.0016,0.0005,0.0005,0.0005,0.0026,0.0028,0.003,0,0,0,0,0,0,0.0005,0.001,0.0007,0.0014,0.0016,0.0018,0.0021,0.0018,0.0018,0.0017,0.0012,0.0012,0.0013,0.0009,0.0008,0.0015,0.0007,0.0007,0.0023,0.0025,0.0026,0.0037,0.0005,0,0,0,0,0,0.0006,0.0012,0.0014,0.0019,0.002,0.0019,0.0021,0.002,0.0019,0.0019,0.0017,0.0014,0.0014,0.0015,0.0013,0.0017,0.0015,0.0021,0.0022,0.0024,0.0032,0.0039,0.0042,0.0006,0.0006,0.0006,0,0,0.0008,0.0011,0.0015,0.002,0.0021,0.0028,0.002,0.0023,0.0031,0.0018,0.0026,0.0019,0.0015,0.0021,0.0021,0.0019,0.0031,0.0024,0.0026,0.0033,0.0039,0.0043,0.0046,0.0006,0.0006,0.0006,0,0,0.0018,0.0018,0.0027,0.003,0.0033,0.0034,0.0034,0.0035,0.0037,0.004,0.0034,0.0034,0.0031,0.0035,0.0035,0.0044,0.0038,0.0039,0.006,0.0066,0.007,0.0073,0.0065,0.0068,0.0042,0.0042,0.0042,0,0.0019,0.0032,0.0029,0.0039,0.0048,0.0037,0.005,0.005,0.0051,0.0059,0.0046,0.0051,0.0042,0.0058,0.0057,0.005,0.0046,0.0054,0.007,0.0073,0.0075,0.0067,0.0069,0.0043,0.0043,0.0043,0.0043,0,0.0036,0.0046,0.0052,0.0064,0.0071,0.008,0.0081,0.0085,0.0082,0.0085,0.0095,0.0083,0.009,0.0082,0.007,0.0086,0.0074,0.007,0.0067,0.008,0.007,0.0072,0.0045,0.0045,0.0044,0.0044,0,0,0.0041,0.0061,0.0064,0.0079,0.0086,0.0097,0.0109,0.0124,0.0142,0.0132,0.0157,0.0143,0.0137,0.0136,0.0123,0.0121,0.0125,0.0102,0.0102,0.0099,0.013,0.0115,0.0115,0.0124,0.0124,0.0125,0.0112,0,0.0056,0.0082,0.009,0.0119,0.0134,0.0138,0.0157,0.0169,0.0172,0.0191,0.018,0.0194,0.0158,0.0164,0.0156,0.0134,0.0132,0.0128,0.0114,0.0113,0.0103,0.0118,0.0127,0.0113,0.0114,0.0114,0.0114,0,0.0071,0.009,0.012,0.0158,0.0167,0.0184,0.022,0.0236,0.0255,0.026,0.0266,0.0256,0.0252,0.0222,0.0194,0.0192,0.0165,0.0143,0.0142,0.0125,0.0103,0.0099,0.0117,0.0117,0.0117,0.0117,0.0116,0,0.008,0.0114,0.0142,0.0153,0.0189,0.0211,0.0234,0.0258,0.0291,0.0308,0.0329,0.0316,0.0318,0.0282,0.0225,0.0213,0.0193,0.0175,0.0138,0.0136,0.0143,0.014,0.0168,0.0168,0.0168,0.0168,0.0169,0,0.0095,0.0118,0.0151,0.0167,0.0215,0.0234,0.0287,0.0305,0.0349,0.0393,0.0369,0.0388,0.0334,0.031,0.0252,0.0198,0.0216,0.0148,0.0138,0.015,0.0148,0.0143,0.0141,0.0168,0.0168,0.0168,0.0168,0,0.0097,0.0115,0.0154,0.0199,0.0219,0.0255,0.0329,0.0374,0.04,0.0456,0.0467,0.0454,0.0411,0.0353,0.0294,0.024,0.0187,0.0167,0.0182,0.0172,0.0116,0.0115,0.0124,0.0124,0.0123,0.0123,0.0123,0,0.0101,0.0118,0.0175,0.0211,0.0235,0.0292,0.0343,0.0394,0.0445,0.0488,0.0521,0.0498,0.0472,0.0379,0.0304,0.0206,0.0188,0.016,0.0136,0.0125,0.0115,0.0114,0.0113,0.0122,0.0122,0.0122,0.0122,0,0.0111,0.0129,0.0162,0.0231,0.0289,0.0364,0.0436,0.047,0.053,0.0554,0.0567,0.0517,0.047,0.0378,0.0311,0.0235,0.0174,0.0155,0.0155,0.0132,0.0122,0.0112,0.0112,0.012,0.0121,0.0121,0.0121,0,0.012,0.0145,0.0192,0.0257,0.0333,0.042,0.0451,0.0513,0.0563,0.0601,0.0595,0.0537,0.0507,0.0393,0.0325,0.0255,0.0226,0.0192,0.0189,0.019,0.0205,0.0202,0.0224,0,0,0,0,0,0.0132,0.0167,0.0224,0.0302,0.0379,0.0432,0.0516,0.0544,0.0579,0.0597,0.0604,0.0555,0.045,0.0399,0.0327,0.0304,0.0208,0.0215,0.0167,0.0113,0.0114,0.0119,0,0,0,0,0,0,0.0146,0.0191,0.0222,0.033,0.0389,0.049,0.0543,0.0571,0.058,0.059,0.0535,0.0523,0.042,0.0491,0.032,0.03,0.0255,0.0172,0.017,0.0112,0.0113,0.0114,0.012,0,0,0,0,0]}]]